| time (UTC) | temp C | wind direction | speed KPH | gust KPH | rain 1hr cm | rain 24hr cm | rain mn cm | humidity % | barometer mb |
| 20260905223039 | 12 | 230 | 11.3 | 0.0 | 0.00 | 0.00 | 0.00 | 100 | 1013.5 |
| 20260905222518 | 12 | 254 | 6.4 | 0.0 | 0.00 | 0.00 | 0.00 | 100 | 1013.6 |
| 20260905222045 | 12 | 264 | 11.3 | 0.0 | 0.00 | 0.00 | 0.00 | 100 | 1013.5 |
| 20260905221526 | 12 | 265 | 11.3 | 0.0 | 0.00 | 0.00 | 0.00 | 100 | 1013.5 |
| 20260905221005 | 12 | 257 | 9.7 | 0.0 | 0.00 | 0.00 | 0.00 | 100 | 1013.4 |
| 20260905220532 | 12 | 254 | 12.9 | 0.0 | 0.00 | 0.00 | 0.00 | 100 | 1013.4 |
| 20260905220012 | 12 | 260 | 14.5 | 0.0 | 0.00 | 0.00 | 0.00 | 100 | 1013.4 |
| 20260905215537 | 12 | 255 | 9.7 | 0.0 | 0.00 | 0.00 | 0.00 | 100 | 1013.3 |
| 20260905215018 | 12 | 254 | 11.3 | 0.0 | 0.00 | 0.00 | 0.00 | 100 | 1013.3 |
| 20260905214544 | 12 | 265 | 12.9 | 0.0 | 0.00 | 0.00 | 0.00 | 100 | 1013.3 |
| 20260905214025 | 12 | 271 | 11.3 | 0.0 | 0.00 | 0.00 | 0.00 | 100 | 1013.3 |
| 20260905213504 | 12 | 280 | 8.0 | 0.0 | 0.00 | 0.00 | 0.00 | 100 | 1013.3 |
| 20260905213030 | 12 | 272 | 8.0 | 0.0 | 0.00 | 0.00 | 0.00 | 100 | 1013.3 |
| 20260905212511 | 12 | 283 | 8.0 | 0.0 | 0.00 | 0.00 | 0.00 | 100 | 1013.2 |
| 20260905212037 | 12 | 242 | 6.4 | 0.0 | 0.00 | 0.00 | 0.00 | 100 | 1013.2 |
| 20260905211517 | 12 | 247 | 8.0 | 0.0 | 0.00 | 0.00 | 0.00 | 100 | 1013.2 |
| 20260905211043 | 12 | 270 | 12.9 | 0.0 | 0.00 | 0.00 | 0.00 | 100 | 1013.2 |
| 20260905210523 | 12 | 260 | 12.9 | 0.0 | 0.00 | 0.00 | 0.00 | 100 | 1013.2 |
| 20260905210004 | 12 | 266 | 9.7 | 0.0 | 0.00 | 0.00 | 0.00 | 100 | 1013.2 |
| 20260905205530 | 12 | 253 | 6.4 | 0.0 | 0.00 | 0.00 | 0.00 | 100 | 1013.0 |
| 20260905205010 | 12 | 268 | 9.7 | 0.0 | 0.00 | 0.00 | 0.00 | 100 | 1013.1 |
| 20260905204536 | 12 | 245 | 11.3 | 0.0 | 0.00 | 0.00 | 0.00 | 100 | 1013.1 |
| 20260905204016 | 12 | 266 | 14.5 | 0.0 | 0.00 | 0.00 | 0.00 | 100 | 1013.1 |
| 20260905203542 | 12 | 249 | 9.7 | 0.0 | 0.00 | 0.00 | 0.00 | 100 | 1013.0 |
| 20260905203022 | 12 | 255 | 9.7 | 0.0 | 0.00 | 0.00 | 0.00 | 100 | 1013.0 |
| 20260905202503 | 12 | 254 | 12.9 | 0.0 | 0.00 | 0.00 | 0.00 | 100 | 1013.1 |
| 20260905202029 | 13 | 271 | 9.7 | 0.0 | 0.00 | 0.00 | 0.00 | 100 | 1013.1 |
| 20260905201509 | 13 | 266 | 16.1 | 0.0 | 0.00 | 0.00 | 0.00 | 100 | 1013.1 |
| 20260905201035 | 13 | 271 | 12.9 | 0.0 | 0.00 | 0.00 | 0.00 | 100 | 1013.1 |
| 20260905200515 | 13 | 258 | 14.5 | 0.0 | 0.00 | 0.00 | 0.00 | 100 | 1013.0 |
| 20260905200042 | 13 | 253 | 12.9 | 0.0 | 0.00 | 0.00 | 0.00 | 100 | 1013.0 |
| 20260905195521 | 13 | 259 | 9.7 | 0.0 | 0.00 | 0.00 | 0.00 | 100 | 1013.1 |
| 20260905195002 | 13 | 266 | 12.9 | 0.0 | 0.00 | 0.00 | 0.00 | 100 | 1013.1 |
| 20260905194528 | 13 | 262 | 17.7 | 0.0 | 0.00 | 0.00 | 0.00 | 100 | 1013.1 |
| 20260905194008 | 13 | 273 | 8.0 | 0.0 | 0.00 | 0.00 | 0.00 | 100 | 1013.1 |
| 20260905193535 | 13 | 246 | 8.0 | 0.0 | 0.00 | 0.00 | 0.00 | 100 | 1013.2 |
| 20260905193014 | 13 | 278 | 9.7 | 0.0 | 0.00 | 0.00 | 0.00 | 100 | 1013.2 |
| 20260905192541 | 13 | 262 | 17.7 | 0.0 | 0.00 | 0.00 | 0.00 | 100 | 1013.1 |
| 20260905192022 | 13 | 261 | 14.5 | 0.0 | 0.00 | 0.00 | 0.00 | 100 | 1013.1 |
| 20260905191501 | 13 | 247 | 6.4 | 0.0 | 0.00 | 0.00 | 0.00 | 100 | 1013.1 |
| 20260905191028 | 13 | 241 | 9.7 | 0.0 | 0.00 | 0.00 | 0.00 | 100 | 1013.2 |
| 20260905190508 | 13 | 256 | 16.1 | 0.0 | 0.00 | 0.00 | 0.00 | 100 | 1013.1 |
| 20260905190034 | 13 | 280 | 6.4 | 0.0 | 0.00 | 0.00 | 0.00 | 100 | 1013.1 |
| 20260905185515 | 13 | 284 | 11.3 | 0.0 | 0.00 | 0.00 | 0.00 | 100 | 1013.0 |
| 20260905185040 | 13 | 258 | 11.3 | 0.0 | 0.00 | 0.00 | 0.00 | 100 | 1013.0 |
| 20260905184521 | 13 | 260 | 12.9 | 0.0 | 0.00 | 0.00 | 0.00 | 100 | 1013.0 |
| 20260905184001 | 13 | 276 | 17.7 | 0.0 | 0.00 | 0.00 | 0.00 | 100 | 1012.9 |
| 20260905183527 | 13 | 288 | 8.0 | 0.0 | 0.00 | 0.00 | 0.00 | 100 | 1012.9 |
| 20260905183007 | 13 | 270 | 11.3 | 0.0 | 0.00 | 0.00 | 0.00 | 100 | 1012.8 |
| 20260905182533 | 13 | 259 | 9.7 | 0.0 | 0.00 | 0.00 | 0.00 | 100 | 1012.8 |
| 20260905182013 | 13 | 276 | 8.0 | 0.0 | 0.00 | 0.00 | 0.00 | 100 | 1012.8 |
| 20260905181539 | 13 | 266 | 12.9 | 0.0 | 0.00 | 0.00 | 0.00 | 100 | 1012.7 |
| 20260905181019 | 13 | 270 | 11.3 | 0.0 | 0.00 | 0.00 | 0.00 | 100 | 1012.6 |
| 20260905180545 | 13 | 262 | 17.7 | 0.0 | 0.00 | 0.00 | 0.00 | 100 | 1012.5 |
| 20260905180026 | 13 | 262 | 17.7 | 0.0 | 0.00 | 0.00 | 0.00 | 100 | 1012.5 |
| 20260905175507 | 13 | 274 | 19.3 | 0.0 | 0.00 | 0.00 | 0.00 | 100 | 1012.5 |
| 20260905175033 | 13 | 254 | 12.9 | 0.0 | 0.00 | 0.00 | 0.00 | 100 | 1012.5 |
| 20260905174513 | 13 | 253 | 17.7 | 0.0 | 0.00 | 0.00 | 0.00 | 100 | 1012.5 |
| 20260905174039 | 13 | 262 | 14.5 | 0.0 | 0.00 | 0.00 | 0.00 | 100 | 1012.3 |
| 20260905173518 | 13 | 271 | 14.5 | 0.0 | 0.00 | 0.00 | 0.00 | 100 | 1012.5 |
| 20260905173044 | 13 | 259 | 14.5 | 0.0 | 0.00 | 0.00 | 0.00 | 100 | 1012.5 |
| 20260905172524 | 13 | 266 | 12.9 | 0.0 | 0.00 | 0.00 | 0.00 | 100 | 1012.3 |
| 20260905172006 | 13 | 267 | 19.3 | 0.0 | 0.00 | 0.00 | 0.00 | 100 | 1012.3 |
| 20260905171531 | 13 | 269 | 11.3 | 0.0 | 0.00 | 0.00 | 0.00 | 100 | 1012.2 |
| 20260905171012 | 13 | 262 | 14.5 | 0.0 | 0.00 | 0.00 | 0.00 | 100 | 1012.1 |
| 20260905170538 | 13 | 249 | 19.3 | 0.0 | 0.00 | 0.00 | 0.00 | 100 | 1012.2 |
| 20260905170018 | 13 | 243 | 11.3 | 0.0 | 0.00 | 0.00 | 0.00 | 100 | 1012.2 |
| 20260905165545 | 13 | 271 | 12.9 | 0.0 | 0.00 | 0.00 | 0.00 | 100 | 1012.2 |
| 20260905165024 | 13 | 264 | 16.1 | 0.0 | 0.00 | 0.00 | 0.00 | 100 | 1012.1 |
| 20260905164504 | 14 | 264 | 14.5 | 0.0 | 0.00 | 0.00 | 0.00 | 100 | 1012.0 |
| 20260905164032 | 14 | 251 | 20.9 | 0.0 | 0.00 | 0.00 | 0.00 | 100 | 1011.8 |
| 20260905163511 | 14 | 270 | 24.1 | 0.0 | 0.00 | 0.00 | 0.00 | 100 | 1011.9 |
| 20260905163037 | 15 | 263 | 14.5 | 0.0 | 0.00 | 0.00 | 0.00 | 100 | 1011.8 |
| 20260905162519 | 15 | 264 | 12.9 | 0.0 | 0.00 | 0.00 | 0.00 | 99 | 1011.6 |
| 20260905162044 | 15 | 270 | 22.5 | 0.0 | 0.00 | 0.00 | 0.00 | 99 | 1011.6 |
| 20260905161524 | 15 | 260 | 24.1 | 0.0 | 0.00 | 0.00 | 0.00 | 98 | 1011.6 |
| 20260905161005 | 15 | 263 | 12.9 | 0.0 | 0.00 | 0.00 | 0.00 | 99 | 1011.6 |
| 20260905160531 | 15 | 259 | 20.9 | 0.0 | 0.00 | 0.00 | 0.00 | 99 | 1011.6 |
| 20260905160011 | 15 | 264 | 24.1 | 0.0 | 0.00 | 0.00 | 0.00 | 99 | 1011.6 |
| 20260905155536 | 15 | 264 | 19.3 | 0.0 | 0.00 | 0.00 | 0.00 | 99 | 1011.6 |
| 20260905155017 | 15 | 268 | 16.1 | 0.0 | 0.00 | 0.00 | 0.00 | 98 | 1011.6 |
| 20260905154543 | 16 | 265 | 22.5 | 0.0 | 0.00 | 0.00 | 0.00 | 95 | 1011.6 |
| 20260905154023 | 16 | 261 | 17.7 | 0.0 | 0.00 | 0.00 | 0.00 | 94 | 1011.6 |
| 20260905153504 | 16 | 268 | 14.5 | 0.0 | 0.00 | 0.00 | 0.00 | 94 | 1011.5 |
| 20260905153029 | 16 | 266 | 17.7 | 0.0 | 0.00 | 0.00 | 0.00 | 91 | 1011.4 |
| 20260905152510 | 16 | 262 | 20.9 | 0.0 | 0.00 | 0.00 | 0.00 | 91 | 1011.4 |
| 20260905152036 | 16 | 257 | 14.5 | 0.0 | 0.00 | 0.00 | 0.00 | 90 | 1011.5 |
| 20260905151516 | 16 | 264 | 30.6 | 0.0 | 0.00 | 0.00 | 0.00 | 88 | 1011.5 |
| 20260905151042 | 16 | 263 | 29.0 | 0.0 | 0.00 | 0.00 | 0.00 | 89 | 1011.4 |
| 20260905150522 | 16 | 267 | 20.9 | 0.0 | 0.00 | 0.00 | 0.00 | 89 | 1011.3 |
| 20260905150002 | 16 | 272 | 25.7 | 0.0 | 0.00 | 0.00 | 0.00 | 91 | 1011.6 |
| 20260905145529 | 16 | 261 | 19.3 | 0.0 | 0.00 | 0.00 | 0.00 | 90 | 1011.6 |
| 20260905145009 | 16 | 262 | 20.9 | 0.0 | 0.00 | 0.00 | 0.00 | 91 | 1011.7 |
| 20260905144535 | 16 | 271 | 16.1 | 0.0 | 0.00 | 0.00 | 0.00 | 94 | 1011.6 |
| 20260905144016 | 16 | 274 | 17.7 | 0.0 | 0.00 | 0.00 | 0.00 | 99 | 1011.7 |
| 20260905143542 | 16 | 254 | 11.3 | 0.0 | 0.00 | 0.00 | 0.00 | 98 | 1011.7 |
| 20260905143022 | 16 | 250 | 22.5 | 0.0 | 0.00 | 0.00 | 0.00 | 98 | 1011.7 |
| 20260905142502 | 15 | 264 | 11.3 | 0.0 | 0.00 | 0.00 | 0.00 | 100 | 1011.7 |
| 20260905142028 | 15 | 259 | 19.3 | 0.0 | 0.00 | 0.00 | 0.00 | 100 | 1011.7 |
| 20260905141508 | 14 | 277 | 19.3 | 0.0 | 0.00 | 0.00 | 0.00 | 100 | 1011.8 |
| 20260905141035 | 14 | 255 | 17.7 | 0.0 | 0.00 | 0.00 | 0.00 | 100 | 1011.9 |
| 20260905140514 | 14 | 253 | 14.5 | 0.0 | 0.00 | 0.00 | 0.00 | 100 | 1011.8 |
| 20260905140041 | 14 | 263 | 22.5 | 0.0 | 0.00 | 0.00 | 0.00 | 100 | 1011.6 |
| 20260905135521 | 14 | 269 | 22.5 | 0.0 | 0.00 | 0.00 | 0.00 | 100 | 1011.4 |
| 20260905135001 | 14 | 263 | 16.1 | 0.0 | 0.00 | 0.00 | 0.00 | 100 | 1011.6 |
| 20260905134528 | 14 | 266 | 16.1 | 0.0 | 0.00 | 0.00 | 0.00 | 100 | 1011.4 |
| 20260905134008 | 14 | 281 | 14.5 | 0.0 | 0.00 | 0.00 | 0.00 | 100 | 1011.5 |
| 20260905133534 | 15 | 264 | 29.0 | 0.0 | 0.00 | 0.00 | 0.00 | 97 | 1011.5 |
| 20260905133014 | 15 | 256 | 20.9 | 0.0 | 0.00 | 0.00 | 0.00 | 94 | 1011.5 |
| 20260905132541 | 15 | 267 | 25.7 | 0.0 | 0.00 | 0.00 | 0.00 | 93 | 1011.5 |
| 20260905132020 | 16 | 264 | 25.7 | 0.0 | 0.00 | 0.00 | 0.00 | 92 | 1011.4 |
| 20260905131501 | 16 | 263 | 24.1 | 0.0 | 0.00 | 0.00 | 0.00 | 88 | 1011.4 |
| 20260905131026 | 16 | 268 | 22.5 | 0.0 | 0.00 | 0.00 | 0.00 | 91 | 1011.2 |
| 20260905130507 | 16 | 264 | 17.7 | 0.0 | 0.00 | 0.00 | 0.00 | 92 | 1011.3 |
| 20260905130033 | 16 | 279 | 9.7 | 0.0 | 0.00 | 0.00 | 0.00 | 95 | 1011.2 |
| 20260905125513 | 16 | 292 | 17.7 | 0.0 | 0.00 | 0.00 | 0.00 | 95 | 1011.1 |
| 20260905125039 | 16 | 276 | 22.5 | 0.0 | 0.00 | 0.00 | 0.00 | 94 | 1011.1 |
| 20260905124520 | 17 | 295 | 14.5 | 0.0 | 0.00 | 0.00 | 0.00 | 95 | 1011.3 |
| 20260905124046 | 17 | 263 | 12.9 | 0.0 | 0.00 | 0.00 | 0.00 | 96 | 1011.2 |
| 20260905123525 | 17 | 269 | 30.6 | 0.0 | 0.00 | 0.00 | 0.00 | 94 | 1011.2 |
| 20260905123006 | 17 | 266 | 16.1 | 0.0 | 0.00 | 0.00 | 0.00 | 99 | 1011.1 |
| 20260905122532 | 16 | 264 | 17.7 | 0.0 | 0.00 | 0.00 | 0.00 | 100 | 1010.9 |
| 20260905122012 | 16 | 290 | 24.1 | 0.0 | 0.00 | 0.00 | 0.00 | 100 | 1010.9 |
| 20260905121538 | 16 | 263 | 17.7 | 0.0 | 0.00 | 0.00 | 0.00 | 100 | 1011.0 |
| 20260905121019 | 16 | 265 | 30.6 | 0.0 | 0.00 | 0.00 | 0.00 | 100 | 1010.9 |
| 20260905120544 | 16 | 261 | 14.5 | 0.0 | 0.00 | 0.00 | 0.00 | 100 | 1010.9 |
| 20260905120025 | 16 | 266 | 24.1 | 0.0 | 0.00 | 0.00 | 0.00 | 100 | 1010.9 |
| 20260905115505 | 16 | 287 | 8.0 | 0.0 | 0.00 | 0.00 | 0.00 | 100 | 1010.9 |
| 20260905115031 | 16 | 255 | 24.1 | 0.0 | 0.00 | 0.00 | 0.00 | 100 | 1010.7 |
| 20260905114511 | 16 | 256 | 29.0 | 0.0 | 0.00 | 0.00 | 0.00 | 100 | 1010.7 |
| 20260905114037 | 16 | 272 | 11.3 | 0.0 | 0.00 | 0.00 | 0.00 | 100 | 1010.7 |
| 20260905113518 | 16 | 257 | 17.7 | 0.0 | 0.00 | 0.00 | 0.00 | 100 | 1010.7 |
| 20260905113044 | 16 | 268 | 14.5 | 0.0 | 0.00 | 0.00 | 0.00 | 100 | 1010.7 |
| 20260905112524 | 15 | 267 | 19.3 | 0.0 | 0.00 | 0.00 | 0.00 | 100 | 1010.8 |
| 20260905112004 | 15 | 261 | 16.1 | 0.0 | 0.00 | 0.00 | 0.00 | 100 | 1010.8 |
| 20260905111531 | 15 | 266 | 17.7 | 0.0 | 0.00 | 0.00 | 0.00 | 100 | 1010.7 |
| 20260905111011 | 15 | 263 | 16.1 | 0.0 | 0.00 | 0.00 | 0.00 | 100 | 1010.8 |
| 20260905110538 | 15 | 262 | 19.3 | 0.0 | 0.00 | 0.00 | 0.00 | 100 | 1010.7 |
| 20260905110017 | 15 | 315 | 16.1 | 0.0 | 0.00 | 0.00 | 0.00 | 100 | 1010.7 |
| 20260905105543 | 15 | 266 | 24.1 | 0.0 | 0.00 | 0.00 | 0.00 | 100 | 1010.6 |
| 20260905105024 | 14 | 281 | 12.9 | 0.0 | 0.00 | 0.00 | 0.00 | 100 | 1010.7 |
| 20260905104504 | 15 | 263 | 30.6 | 0.0 | 0.00 | 0.00 | 0.00 | 100 | 1010.6 |
| 20260905104030 | 15 | 268 | 19.3 | 0.0 | 0.00 | 0.00 | 0.00 | 100 | 1010.6 |
| 20260905103511 | 15 | 257 | 27.4 | 0.0 | 0.00 | 0.00 | 0.00 | 100 | 1010.3 |
| 20260905103037 | 15 | 267 | 20.9 | 0.0 | 0.00 | 0.00 | 0.00 | 100 | 1010.2 |
| 20260905102517 | 15 | 270 | 17.7 | 0.0 | 0.00 | 0.00 | 0.00 | 100 | 1010.1 |
| 20260905102043 | 14 | 258 | 12.9 | 0.0 | 0.00 | 0.00 | 0.00 | 100 | 1010.0 |
| 20260905101524 | 13 | 265 | 14.5 | 0.0 | 0.00 | 0.00 | 0.00 | 100 | 1010.1 |
| 20260905101003 | 13 | 276 | 12.9 | 0.0 | 0.00 | 0.00 | 0.00 | 100 | 1010.1 |
| 20260905100529 | 13 | 261 | 19.3 | 0.0 | 0.00 | 0.00 | 0.00 | 100 | 1010.2 |
| 20260905100009 | 13 | 261 | 16.1 | 0.0 | 0.00 | 0.00 | 0.00 | 100 | 1010.1 |
| 20260905095535 | 13 | 257 | 20.9 | 0.0 | 0.00 | 0.00 | 0.00 | 100 | 1010.1 |
| 20260905095016 | 13 | 268 | 20.9 | 0.0 | 0.00 | 0.00 | 0.00 | 100 | 1010.1 |
| 20260905094541 | 13 | 276 | 16.1 | 0.0 | 0.00 | 0.00 | 0.00 | 100 | 1010.0 |
| 20260905094022 | 13 | 291 | 17.7 | 0.0 | 0.00 | 0.00 | 0.00 | 100 | 1009.9 |
| 20260905093503 | 15 | 275 | 19.3 | 0.0 | 0.00 | 0.00 | 0.00 | 100 | 1009.8 |
| 20260905093028 | 15 | 279 | 17.7 | 0.0 | 0.00 | 0.00 | 0.00 | 100 | 1009.8 |
| 20260905092509 | 15 | 280 | 16.1 | 0.0 | 0.00 | 0.00 | 0.00 | 100 | 1009.6 |
| 20260905092035 | 15 | 256 | 12.9 | 0.0 | 0.00 | 0.00 | 0.00 | 100 | 1009.6 |
| 20260905091515 | 15 | 314 | 9.7 | 0.0 | 0.00 | 0.00 | 0.00 | 100 | 1009.6 |
| 20260905091041 | 15 | 285 | 16.1 | 0.0 | 0.00 | 0.00 | 0.00 | 100 | 1009.4 |
| 20260905090521 | 15 | 262 | 27.4 | 0.0 | 0.00 | 0.00 | 0.00 | 100 | 1009.3 |
| 20260905090001 | 16 | 261 | 9.7 | 0.0 | 0.00 | 0.00 | 0.00 | 100 | 1009.2 |
| 20260905085527 | 16 | 255 | 16.1 | 0.0 | 0.00 | 0.00 | 0.00 | 99 | 1009.1 |
| 20260905085008 | 16 | 267 | 11.3 | 0.0 | 0.00 | 0.00 | 0.00 | 99 | 1009.1 |
| 20260905084533 | 17 | 281 | 17.7 | 0.0 | 0.00 | 0.00 | 0.00 | 100 | 1008.9 |
| 20260905084014 | 16 | 266 | 16.1 | 0.0 | 0.00 | 0.00 | 0.00 | 100 | 1008.9 |
| 20260905083541 | 16 | 281 | 9.7 | 0.0 | 0.00 | 0.00 | 0.00 | 100 | 1008.9 |
| 20260905083020 | 16 | 285 | 14.5 | 0.0 | 0.00 | 0.00 | 0.00 | 100 | 1008.8 |
| 20260905082501 | 16 | 263 | 29.0 | 0.0 | 0.00 | 0.00 | 0.00 | 100 | 1008.7 |
| 20260905082027 | 16 | 280 | 17.7 | 0.0 | 0.00 | 0.00 | 0.00 | 100 | 1008.7 |
| 20260905081507 | 16 | 314 | 16.1 | 0.0 | 0.00 | 0.00 | 0.00 | 100 | 1008.6 |
| 20260905081033 | 16 | 265 | 25.7 | 0.0 | 0.00 | 0.00 | 0.00 | 100 | 1008.4 |
| 20260905080513 | 16 | 276 | 14.5 | 0.0 | 0.00 | 0.00 | 0.00 | 100 | 1008.4 |
| 20260905080039 | 15 | 268 | 20.9 | 0.0 | 0.00 | 0.00 | 0.00 | 100 | 1008.4 |
| 20260905075521 | 15 | 286 | 16.1 | 0.0 | 0.00 | 0.00 | 0.00 | 100 | 1008.3 |
| 20260905075046 | 15 | 282 | 14.5 | 0.0 | 0.00 | 0.00 | 0.00 | 100 | 1008.2 |
| 20260905074527 | 15 | 263 | 17.7 | 0.0 | 0.00 | 0.00 | 0.00 | 100 | 1008.2 |
| 20260905074007 | 15 | 264 | 24.1 | 0.0 | 0.00 | 0.00 | 0.00 | 100 | 1008.2 |
| 20260905073533 | 15 | 272 | 8.0 | 0.0 | 0.00 | 0.00 | 0.00 | 100 | 1008.1 |
| 20260905073013 | 15 | 286 | 14.5 | 0.0 | 0.00 | 0.00 | 0.00 | 100 | 1008.0 |
| 20260905072539 | 15 | 275 | 11.3 | 0.0 | 0.00 | 0.00 | 0.00 | 100 | 1007.9 |
| 20260905072019 | 14 | 273 | 12.9 | 0.0 | 0.00 | 0.00 | 0.00 | 100 | 1007.9 |
| 20260905071545 | 14 | 281 | 20.9 | 0.0 | 0.00 | 0.00 | 0.00 | 100 | 1008.0 |
| 20260905071026 | 13 | 296 | 12.9 | 0.0 | 0.00 | 0.00 | 0.00 | 100 | 1007.9 |
| 20260905070506 | 13 | 273 | 11.3 | 0.0 | 0.00 | 0.00 | 0.00 | 100 | 1007.8 |
| 20260905070032 | 13 | 267 | 17.7 | 0.0 | 0.00 | 0.00 | 0.00 | 100 | 1007.7 |
| 20260905065512 | 13 | 270 | 14.5 | 0.0 | 0.00 | 0.00 | 0.00 | 100 | 1007.7 |
| 20260905065038 | 13 | 288 | 12.9 | 0.0 | 0.00 | 0.00 | 0.00 | 100 | 1007.6 |
| 20260905064518 | 13 | 268 | 14.5 | 0.0 | 0.00 | 0.00 | 0.00 | 100 | 1007.6 |
| 20260905064044 | 13 | 267 | 12.9 | 0.0 | 0.00 | 0.00 | 0.00 | 100 | 1007.5 |
| 20260905063524 | 13 | 256 | 12.9 | 0.0 | 0.00 | 0.00 | 0.00 | 100 | 1007.5 |
| 20260905063005 | 13 | 273 | 9.7 | 0.0 | 0.00 | 0.00 | 0.00 | 100 | 1007.5 |
| 20260905062531 | 13 | 273 | 6.4 | 0.0 | 0.00 | 0.00 | 0.00 | 100 | 1007.4 |
| 20260905062011 | 13 | 308 | 4.8 | 0.0 | 0.00 | 0.00 | 0.00 | 100 | 1007.4 |
| 20260905061537 | 13 | 312 | 6.4 | 0.0 | 0.00 | 0.00 | 0.00 | 100 | 1007.3 |
| 20260905061017 | 13 | 267 | 12.9 | 0.0 | 0.00 | 0.00 | 0.00 | 100 | 1007.0 |
| 20260905060543 | 13 | 276 | 19.3 | 0.0 | 0.00 | 0.00 | 0.00 | 100 | 1007.1 |
| 20260905060024 | 13 | 274 | 11.3 | 0.0 | 0.00 | 0.00 | 0.00 | 100 | 1007.2 |
| 20260905055504 | 13 | 260 | 25.7 | 0.0 | 0.00 | 0.00 | 0.00 | 100 | 1007.0 |
| 20260905055030 | 13 | 283 | 11.3 | 0.0 | 0.00 | 0.00 | 0.00 | 100 | 1006.9 |
| 20260905054510 | 13 | 276 | 12.9 | 0.0 | 0.00 | 0.00 | 0.00 | 100 | 1006.8 |
| 20260905054037 | 14 | 266 | 19.3 | 0.0 | 0.00 | 0.00 | 0.00 | 100 | 1006.6 |
| 20260905053517 | 14 | 253 | 19.3 | 0.0 | 0.00 | 0.00 | 0.00 | 100 | 1006.7 |
| 20260905053044 | 14 | 263 | 17.7 | 0.0 | 0.00 | 0.00 | 0.00 | 100 | 1006.8 |
| 20260905052523 | 14 | 262 | 17.7 | 0.0 | 0.00 | 0.00 | 0.00 | 100 | 1006.5 |
| 20260905052004 | 14 | 247 | 12.9 | 0.0 | 0.00 | 0.00 | 0.00 | 100 | 1006.4 |
| 20260905051529 | 14 | 257 | 14.5 | 0.0 | 0.00 | 0.00 | 0.00 | 100 | 1006.4 |
| 20260905051010 | 14 | 286 | 12.9 | 0.0 | 0.00 | 0.00 | 0.00 | 100 | 1006.4 |
| 20260905050536 | 13 | 259 | 19.3 | 0.0 | 0.00 | 0.00 | 0.00 | 100 | 1006.4 |
| 20260905050017 | 13 | 263 | 9.7 | 0.0 | 0.00 | 0.00 | 0.00 | 100 | 1006.3 |
| 20260905045543 | 13 | 276 | 12.9 | 0.0 | 0.00 | 0.00 | 0.00 | 100 | 1006.4 |
| 20260905045023 | 13 | 275 | 11.3 | 0.0 | 0.00 | 0.00 | 0.00 | 100 | 1006.3 |
| 20260905044503 | 13 | 256 | 11.3 | 0.0 | 0.00 | 0.00 | 0.00 | 100 | 1006.2 |
| 20260905044029 | 13 | 249 | 12.9 | 0.0 | 0.00 | 0.00 | 0.00 | 100 | 1006.0 |
| 20260905043509 | 13 | 262 | 14.5 | 0.0 | 0.00 | 0.00 | 0.00 | 100 | 1006.1 |
| 20260905043036 | 13 | 250 | 12.9 | 0.0 | 0.00 | 0.00 | 0.00 | 100 | 1005.8 |
| 20260905042516 | 13 | 249 | 17.7 | 0.0 | 0.00 | 0.00 | 0.00 | 100 | 1006.0 |
| 20260905042042 | 13 | 263 | 14.5 | 0.0 | 0.00 | 0.00 | 0.00 | 100 | 1005.8 |
| 20260905041522 | 13 | 260 | 11.3 | 0.0 | 0.00 | 0.00 | 0.00 | 100 | 1005.8 |
| 20260905041002 | 13 | 272 | 9.7 | 0.0 | 0.00 | 0.00 | 0.00 | 100 | 1005.8 |
| 20260905040527 | 13 | 252 | 9.7 | 0.0 | 0.00 | 0.00 | 0.00 | 100 | 1005.6 |
| 20260905040008 | 13 | 257 | 16.1 | 0.0 | 0.00 | 0.00 | 0.00 | 100 | 1005.6 |
| 20260905035534 | 13 | 262 | 22.5 | 0.0 | 0.00 | 0.00 | 0.00 | 100 | 1005.5 |
| 20260905035014 | 13 | 283 | 11.3 | 0.0 | 0.00 | 0.00 | 0.00 | 100 | 1005.5 |
| 20260905034540 | 13 | 272 | 12.9 | 0.0 | 0.00 | 0.00 | 0.00 | 100 | 1005.4 |
| 20260905034021 | 13 | 266 | 16.1 | 0.0 | 0.00 | 0.00 | 0.00 | 100 | 1005.4 |
| 20260905033501 | 13 | 272 | 16.1 | 0.0 | 0.00 | 0.00 | 0.00 | 100 | 1005.3 |
| 20260905033028 | 13 | 262 | 25.7 | 0.0 | 0.00 | 0.00 | 0.00 | 100 | 1005.2 |
| 20260905032508 | 13 | 262 | 12.9 | 0.0 | 0.00 | 0.00 | 0.00 | 100 | 1005.3 |
| 20260905032034 | 13 | 267 | 16.1 | 0.0 | 0.00 | 0.00 | 0.00 | 100 | 1005.0 |
| 20260905031513 | 13 | 264 | 12.9 | 0.0 | 0.00 | 0.00 | 0.00 | 100 | 1005.0 |
| 20260905031039 | 13 | 278 | 17.7 | 0.0 | 0.00 | 0.00 | 0.00 | 100 | 1004.9 |
| 20260905030520 | 13 | 261 | 20.9 | 0.0 | 0.00 | 0.00 | 0.00 | 100 | 1004.9 |
| 20260905030000 | 13 | 288 | 9.7 | 0.0 | 0.00 | 0.00 | 0.00 | 100 | 1004.9 |
| 20260905025526 | 13 | 258 | 17.7 | 0.0 | 0.00 | 0.00 | 0.00 | 100 | 1004.8 |
| 20260905025006 | 13 | 262 | 12.9 | 0.0 | 0.00 | 0.00 | 0.00 | 100 | 1004.9 |
| 20260905024533 | 13 | 259 | 17.7 | 0.0 | 0.00 | 0.00 | 0.00 | 100 | 1004.9 |
| 20260905024013 | 13 | 272 | 14.5 | 0.0 | 0.00 | 0.00 | 0.00 | 100 | 1004.8 |
| 20260905023539 | 13 | 264 | 24.1 | 0.0 | 0.00 | 0.00 | 0.00 | 100 | 1004.7 |
| 20260905023019 | 13 | 262 | 27.4 | 0.0 | 0.00 | 0.00 | 0.00 | 100 | 1004.6 |
| 20260905022546 | 13 | 267 | 20.9 | 0.0 | 0.00 | 0.00 | 0.00 | 100 | 1004.6 |
| 20260905022026 | 13 | 272 | 22.5 | 0.0 | 0.00 | 0.00 | 0.00 | 100 | 1004.6 |
| 20260905021505 | 13 | 269 | 16.1 | 0.0 | 0.00 | 0.00 | 0.00 | 100 | 1004.5 |
| 20260905021032 | 13 | 279 | 19.3 | 0.0 | 0.00 | 0.00 | 0.00 | 100 | 1004.4 |
| 20260905020512 | 13 | 276 | 16.1 | 0.0 | 0.00 | 0.00 | 0.00 | 100 | 1004.4 |
| 20260905020038 | 13 | 287 | 22.5 | 0.0 | 0.00 | 0.00 | 0.00 | 100 | 1004.4 |
| 20260905015519 | 13 | 279 | 11.3 | 0.0 | 0.00 | 0.00 | 0.00 | 100 | 1004.3 |
| 20260905015044 | 13 | 297 | 11.3 | 0.0 | 0.00 | 0.00 | 0.00 | 100 | 1004.2 |
| 20260905014526 | 13 | 309 | 12.9 | 0.0 | 0.00 | 0.00 | 0.00 | 100 | 1004.2 |
| 20260905014006 | 13 | 245 | 4.8 | 0.0 | 0.00 | 0.00 | 0.00 | 100 | 1004.1 |
| 20260905013532 | 13 | 281 | 19.3 | 0.0 | 0.00 | 0.00 | 0.00 | 100 | 1003.9 |
| 20260905013012 | 14 | 275 | 19.3 | 0.0 | 0.00 | 0.00 | 0.00 | 100 | 1004.0 |
| 20260905012538 | 14 | 275 | 17.7 | 0.0 | 0.00 | 0.00 | 0.00 | 100 | 1003.8 |
| 20260905012018 | 14 | 268 | 19.3 | 0.0 | 0.00 | 0.00 | 0.00 | 100 | 1003.8 |
| 20260905011544 | 14 | 262 | 16.1 | 0.0 | 0.00 | 0.00 | 0.00 | 100 | 1003.7 |
| 20260905011025 | 14 | 282 | 16.1 | 0.0 | 0.00 | 0.00 | 0.00 | 100 | 1003.6 |
| 20260905010505 | 14 | 265 | 25.7 | 0.0 | 0.00 | 0.00 | 0.00 | 100 | 1003.3 |
| 20260905010031 | 14 | 291 | 14.5 | 0.0 | 0.00 | 0.00 | 0.00 | 100 | 1003.4 |
| 20260905005511 | 14 | 289 | 19.3 | 0.0 | 0.00 | 0.00 | 0.00 | 100 | 1003.4 |
| 20260905005036 | 14 | 268 | 22.5 | 0.0 | 0.00 | 0.00 | 0.00 | 100 | 1003.3 |
| 20260905004517 | 14 | 262 | 24.1 | 0.0 | 0.00 | 0.00 | 0.00 | 100 | 1003.2 |
| 20260905004042 | 15 | 262 | 17.7 | 0.0 | 0.00 | 0.00 | 0.00 | 100 | 1003.3 |
| 20260905003523 | 15 | 267 | 19.3 | 0.0 | 0.00 | 0.00 | 0.00 | 100 | 1003.2 |
| 20260905003004 | 15 | 274 | 20.9 | 0.0 | 0.00 | 0.00 | 0.00 | 100 | 1003.1 |
| 20260905002530 | 15 | 264 | 17.7 | 0.0 | 0.00 | 0.00 | 0.00 | 100 | 1003.1 |
| 20260905002010 | 15 | 258 | 25.7 | 0.0 | 0.00 | 0.00 | 0.00 | 100 | 1002.9 |
| 20260905001536 | 15 | 265 | 22.5 | 0.0 | 0.00 | 0.00 | 0.00 | 100 | 1002.9 |
| 20260905001016 | 15 | 273 | 25.7 | 0.0 | 0.00 | 0.00 | 0.00 | 100 | 1002.8 |
| 20260905000543 | 15 | 266 | 24.1 | 0.0 | 0.00 | 0.00 | 0.00 | 100 | 1002.7 |
| 20260905000023 | 15 | 291 | 12.9 | 0.0 | 0.00 | 0.00 | 0.00 | 100 | 1002.7 |
| 20260904235503 | 15 | 256 | 24.1 | 0.0 | 0.00 | 0.00 | 0.00 | 100 | 1002.6 |
| 20260904235029 | 15 | 275 | 20.9 | 0.0 | 0.00 | 0.00 | 0.00 | 100 | 1002.6 |
| 20260904234509 | 15 | 270 | 22.5 | 0.0 | 0.00 | 0.00 | 0.00 | 100 | 1002.6 |
| 20260904234035 | 15 | 271 | 19.3 | 0.0 | 0.00 | 0.00 | 0.00 | 100 | 1002.5 |
| 20260904233515 | 15 | 262 | 22.5 | 0.0 | 0.00 | 0.00 | 0.00 | 100 | 1002.5 |
| 20260904233132 | 15 | 292 | 8.0 | 0.0 | 0.00 | 0.00 | 0.00 | 100 | 1002.6 |
| 20260904232522 | 15 | 270 | 14.5 | 0.0 | 0.00 | 0.00 | 0.00 | 100 | 1002.6 |
| 20260904232002 | 15 | 257 | 11.3 | 0.0 | 0.00 | 0.00 | 0.00 | 100 | 1002.6 |
| 20260904231529 | 15 | 275 | 12.9 | 0.0 | 0.00 | 0.00 | 0.00 | 100 | 1002.6 |
| 20260904231009 | 16 | 236 | 9.7 | 0.0 | 0.00 | 0.00 | 0.00 | 100 | 1002.6 |
| 20260904230535 | 16 | 245 | 12.9 | 0.0 | 0.00 | 0.00 | 0.00 | 100 | 1002.6 |
| 20260904230015 | 16 | 252 | 9.7 | 0.0 | 0.00 | 0.00 | 0.00 | 100 | 1002.6 |
| 20260904225541 | 16 | 244 | 9.7 | 0.0 | 0.00 | 0.00 | 0.00 | 100 | 1002.7 |
| 20260904225021 | 16 | 261 | 8.0 | 0.0 | 0.00 | 0.00 | 0.00 | 100 | 1002.8 |
| 20260904224503 | 16 | 263 | 6.4 | 0.0 | 0.00 | 0.00 | 0.00 | 100 | 1002.9 |
| 20260904224028 | 16 | 234 | 8.0 | 0.0 | 0.00 | 0.00 | 0.00 | 100 | 1002.9 |
| 20260904223508 | 16 | 256 | 6.4 | 0.0 | 0.00 | 0.00 | 0.00 | 100 | 1002.9 |